Wetterdaten: Woche 20.11.17 - 26.11.17 (KW47)
Datum Zeit Temp. I. Temp. A. Feuchte I. Feuchte A. Luftdruck Regen Wind Richtung Sonnenschein UV Solar Taupunkt Windchill Windben
20.11.2017 00:00 23,4 C 3,0 C 58 % 88 % 1017,4 hPa 0,0 l/m 13,3 km/h (3 Bft) W-SW 0,00 h 0,0 UV-I 0 W/m 1,2 C -2,2 C 20,2 km/h (4 Bft)
20.11.2017 01:00 23,2 C 3,0 C 59 % 87 % 1017,8 hPa 0,0 l/m 11,6 km/h (2 Bft) W-SW 0,00 h 0,0 UV-I 0 W/m 1,2 C -1,2 C 18,1 km/h (3 Bft)
20.11.2017 02:00 23,1 C 3,0 C 60 % 88 % 1018,2 hPa 0,0 l/m 11,0 km/h (2 Bft) W-SW 0,00 h 0,0 UV-I 0 W/m 1,1 C -0,7 C 17,3 km/h (3 Bft)
20.11.2017 03:00 23,1 C 3,0 C 61 % 87 % 1018,4 hPa 0,0 l/m 8,9 km/h (2 Bft) W 0,00 h 0,0 UV-I 0 W/m 1,0 C 0,7 C 14,8 km/h (3 Bft)
20.11.2017 04:00 23,1 C 3,0 C 61 % 87 % 1018,8 hPa 0,0 l/m 10,9 km/h (2 Bft) W 0,00 h 0,0 UV-I 0 W/m 1,0 C -0,6 C 17,0 km/h (3 Bft)
20.11.2017 05:00 23,1 C 2,8 C 61 % 87 % 1019,2 hPa 0,0 l/m 7,9 km/h (2 Bft) W-SW 0,00 h 0,0 UV-I 0 W/m 0,8 C 1,2 C 13,5 km/h (3 Bft)
20.11.2017 06:00 23,2 C 2,2 C 61 % 91 % 1019,5 hPa 0,0 l/m 8,3 km/h (2 Bft) W-SW 0,00 h 0,0 UV-I 0 W/m 1,0 C 0,3 C 12,8 km/h (3 Bft)
20.11.2017 07:00 23,3 C 2,3 C 61 % 92 % 1019,5 hPa 0,2 l/m 7,9 km/h (2 Bft) W-SW 0,00 h 0,0 UV-I 7 W/m 1,1 C 0,6 C 13,3 km/h (3 Bft)
20.11.2017 08:00 23,3 C 2,5 C 61 % 93 % 1019,8 hPa 0,0 l/m 9,6 km/h (2 Bft) W-SW 0,00 h 0,0 UV-I 18 W/m 1,5 C -0,3 C 13,8 km/h (3 Bft)
20.11.2017 09:00 23,2 C 2,5 C 56 % 94 % 1019,9 hPa 0,0 l/m 9,1 km/h (2 Bft) W-SW 0,00 h 0,0 UV-I 43 W/m 1,6 C -0,1 C 12,9 km/h (3 Bft)
20.11.2017 10:00 23,2 C 2,5 C 56 % 94 % 1019,9 hPa 0,0 l/m 12,5 km/h (3 Bft) W-SW 0,00 h 0,0 UV-I 39 W/m 1,6 C -2,3 C 18,9 km/h (3 Bft)
20.11.2017 11:00 23,1 C 2,3 C 55 % 94 % 1019,7 hPa 0,0 l/m 12,2 km/h (2 Bft) W-SW 0,00 h 0,5 UV-I 40 W/m 1,4 C -2,3 C 19,7 km/h (3 Bft)
20.11.2017 12:00 23,1 C 2,3 C 54 % 92 % 1019,4 hPa 0,0 l/m 10,1 km/h (2 Bft) W-SW 0,00 h 0,0 UV-I 46 W/m 1,2 C -0,9 C 15,7 km/h (3 Bft)
20.11.2017 13:00 23,1 C 2,5 C 54 % 90 % 1019,2 hPa 0,0 l/m 9,6 km/h (2 Bft) W-SW 0,00 h 0,0 UV-I 39 W/m 1,0 C -0,2 C 15,6 km/h (3 Bft)
20.11.2017 14:00 23,3 C 2,2 C 55 % 89 % 1019,1 hPa 0,0 l/m 12,9 km/h (3 Bft) W-SW 0,00 h 0,0 UV-I 49 W/m 0,5 C -2,8 C 19,3 km/h (3 Bft)
20.11.2017 15:00 23,4 C 1,4 C 57 % 91 % 1019,0 hPa 0,0 l/m 10,5 km/h (2 Bft) W-SW 0,00 h 0,0 UV-I 19 W/m 0,1 C -2,2 C 15,6 km/h (3 Bft)
20.11.2017 16:00 23,2 C 1,0 C 58 % 93 % 1018,4 hPa 0,0 l/m 5,2 km/h (1 Bft) S-SW 0,00 h 0,0 UV-I 0 W/m 0,1 C 0,6 C 6,3 km/h (2 Bft)
20.11.2017 17:00 23,2 C 0,9 C 58 % 94 % 1017,9 hPa 0,0 l/m 6,6 km/h (2 Bft) S-SW 0,00 h 0,0 UV-I 0 W/m 0,1 C -0,0 C 8,1 km/h (2 Bft)
20.11.2017 18:00 23,1 C 0,9 C 58 % 95 % 1017,4 hPa 0,0 l/m 7,2 km/h (2 Bft) S 0,00 h 0,0 UV-I 0 W/m 0,2 C -0,4 C 10,9 km/h (2 Bft)
20.11.2017 19:00 22,9 C 0,8 C 58 % 95 % 1016,9 hPa 0,0 l/m 7,8 km/h (2 Bft) S 0,00 h 0,0 UV-I 0 W/m 0,1 C -0,8 C 12,1 km/h (2 Bft)
20.11.2017 20:00 23,0 C 0,7 C 59 % 95 % 1016,7 hPa 0,0 l/m 6,6 km/h (2 Bft) S 0,00 h 0,0 UV-I 0 W/m 0,0 C -0,1 C 10,9 km/h (2 Bft)
20.11.2017 21:00 23,0 C 0,7 C 59 % 96 % 1016,2 hPa 0,0 l/m 5,8 km/h (2 Bft) S 0,00 h 0,0 UV-I 0 W/m 0,1 C 0,2 C 9,7 km/h (2 Bft)
20.11.2017 22:00 23,1 C 0,7 C 59 % 96 % 1015,6 hPa 1,2 l/m 5,7 km/h (1 Bft) S 0,00 h 0,0 UV-I 0 W/m 0,1 C 0,3 C 9,6 km/h (2 Bft)
20.11.2017 23:00 23,1 C 0,7 C 60 % 96 % 1015,1 hPa 0,4 l/m 4,3 km/h (1 Bft) S 0,00 h 0,0 UV-I 0 W/m 0,2 C 0,5 C 8,1 km/h (2 Bft)
21.11.2017 00:00 23,1 C 0,9 C 60 % 96 % 1014,7 hPa 0,0 l/m 5,7 km/h (1 Bft) S 0,00 h 0,0 UV-I 0 W/m 0,3 C 0,3 C 9,1 km/h (2 Bft)
21.11.2017 01:00 23,0 C 0,9 C 61 % 97 % 1014,5 hPa 0,0 l/m 3,5 km/h (1 Bft) S 0,00 h 0,0 UV-I 0 W/m 0,5 C 0,8 C 6,3 km/h (2 Bft)
21.11.2017 02:00 22,9 C 1,1 C 62 % 97 % 1014,3 hPa 0,0 l/m 2,6 km/h (1 Bft) S 0,00 h 0,0 UV-I 0 W/m 0,7 C 1,1 C 5,8 km/h (2 Bft)
21.11.2017 03:00 22,9 C 1,7 C 62 % 97 % 1014,0 hPa 0,0 l/m 4,0 km/h (1 Bft) S-SW 0,00 h 0,0 UV-I 0 W/m 1,3 C 1,6 C 8,5 km/h (2 Bft)
21.11.2017 04:00 22,9 C 2,4 C 62 % 97 % 1013,8 hPa 0,2 l/m 2,1 km/h (1 Bft) S-SW 0,00 h 0,0 UV-I 0 W/m 1,9 C 2,4 C 5,1 km/h (1 Bft)
21.11.2017 05:00 22,9 C 2,9 C 62 % 97 % 1013,9 hPa 0,0 l/m 1,5 km/h (1 Bft) SW 0,00 h 0,0 UV-I 0 W/m 2,5 C 2,9 C 3,9 km/h (1 Bft)
21.11.2017 06:00 23,0 C 3,8 C 62 % 98 % 1013,9 hPa 0,2 l/m 2,6 km/h (1 Bft) SW 0,00 h 0,0 UV-I 0 W/m 3,5 C 3,6 C 5,5 km/h (1 Bft)
21.11.2017 07:00 23,3 C 4,6 C 61 % 98 % 1014,2 hPa 0,0 l/m 6,1 km/h (2 Bft) W-SW 0,00 h 0,0 UV-I 0 W/m 4,3 C 3,6 C 11,0 km/h (2 Bft)
21.11.2017 08:00 23,3 C 5,0 C 59 % 97 % 1014,4 hPa 0,0 l/m 7,4 km/h (2 Bft) W-SW 0,00 h 0,0 UV-I 11 W/m 4,6 C 3,8 C 12,6 km/h (3 Bft)
21.11.2017 09:00 23,2 C 5,4 C 54 % 97 % 1014,7 hPa 0,0 l/m 7,5 km/h (2 Bft) W-SW 0,00 h 0,0 UV-I 29 W/m 5,0 C 4,1 C 13,2 km/h (3 Bft)
21.11.2017 10:00 23,1 C 5,7 C 52 % 97 % 1014,8 hPa 0,0 l/m 6,9 km/h (2 Bft) W-SW 0,00 h 0,0 UV-I 32 W/m 5,3 C 4,5 C 12,9 km/h (3 Bft)
21.11.2017 11:00 23,2 C 5,8 C 53 % 97 % 1014,8 hPa 0,0 l/m 10,2 km/h (2 Bft) SW 0,00 h 0,0 UV-I 27 W/m 5,4 C 3,0 C 17,0 km/h (3 Bft)
21.11.2017 12:00 23,2 C 6,0 C 54 % 97 % 1014,6 hPa 0,0 l/m 9,3 km/h (2 Bft) SW 0,00 h 0,0 UV-I 25 W/m 5,5 C 3,6 C 15,4 km/h (3 Bft)
21.11.2017 13:00 23,3 C 6,1 C 55 % 96 % 1014,3 hPa 0,0 l/m 8,1 km/h (2 Bft) W-SW 0,00 h 0,0 UV-I 23 W/m 5,5 C 4,4 C 13,7 km/h (3 Bft)
21.11.2017 14:00 23,3 C 6,2 C 55 % 96 % 1014,2 hPa 0,6 l/m 5,4 km/h (1 Bft) SW 0,00 h 0,0 UV-I 20 W/m 5,6 C 5,7 C 10,2 km/h (2 Bft)
21.11.2017 15:00 23,3 C 6,2 C 55 % 96 % 1014,2 hPa 0,2 l/m 3,7 km/h (1 Bft) SW 0,00 h 0,0 UV-I 8 W/m 5,6 C 6,1 C 8,1 km/h (2 Bft)
21.11.2017 16:00 23,3 C 6,1 C 55 % 96 % 1014,2 hPa 0,2 l/m 2,3 km/h (1 Bft) SW 0,00 h 0,0 UV-I 0 W/m 5,5 C 6,1 C 5,1 km/h (1 Bft)
21.11.2017 17:00 23,3 C 6,1 C 55 % 96 % 1014,1 hPa 0,0 l/m 3,4 km/h (1 Bft) SW 0,00 h 0,0 UV-I 0 W/m 5,5 C 6,0 C 7,2 km/h (2 Bft)
21.11.2017 18:00 23,3 C 6,2 C 55 % 96 % 1014,1 hPa 0,0 l/m 2,7 km/h (1 Bft) SW 0,00 h 0,0 UV-I 0 W/m 5,6 C 6,0 C 5,8 km/h (2 Bft)
21.11.2017 19:00 23,5 C 6,3 C 54 % 96 % 1013,9 hPa 0,0 l/m 4,9 km/h (1 Bft) SW 0,00 h 0,0 UV-I 0 W/m 5,7 C 6,0 C 7,8 km/h (2 Bft)
21.11.2017 20:00 23,4 C 6,4 C 55 % 97 % 1014,0 hPa 0,0 l/m 5,5 km/h (1 Bft) SW 0,00 h 0,0 UV-I 0 W/m 5,9 C 5,5 C 7,7 km/h (2 Bft)
21.11.2017 21:00 23,4 C 6,3 C 55 % 96 % 1014,0 hPa 0,0 l/m 7,0 km/h (2 Bft) W-SW 0,00 h 0,0 UV-I 0 W/m 5,7 C 5,1 C 12,6 km/h (3 Bft)
21.11.2017 22:00 23,4 C 6,3 C 56 % 94 % 1013,8 hPa 0,0 l/m 9,4 km/h (2 Bft) SW 0,00 h 0,0 UV-I 0 W/m 5,3 C 3,7 C 15,2 km/h (3 Bft)
21.11.2017 23:00 23,5 C 6,0 C 56 % 92 % 1014,4 hPa 0,0 l/m 8,1 km/h (2 Bft) W-SW 0,00 h 0,0 UV-I 0 W/m 4,8 C 4,2 C 11,2 km/h (2 Bft)
22.11.2017 00:00 23,4 C 5,8 C 57 % 92 % 1014,2 hPa 0,0 l/m 6,6 km/h (2 Bft) W-SW 0,00 h 0,0 UV-I 0 W/m 4,5 C 4,5 C 12,2 km/h (2 Bft)
22.11.2017 01:00 23,2 C 5,5 C 57 % 93 % 1014,0 hPa 0,0 l/m 4,6 km/h (1 Bft) W-SW 0,00 h 0,0 UV-I 0 W/m 4,4 C 5,2 C 9,3 km/h (2 Bft)
22.11.2017 02:00 23,1 C 5,6 C 58 % 93 % 1013,7 hPa 0,0 l/m 2,8 km/h (1 Bft) S-SW 0,00 h 0,0 UV-I 0 W/m 4,5 C 5,5 C 6,6 km/h (2 Bft)
22.11.2017 03:00 23,1 C 5,7 C 59 % 94 % 1013,3 hPa 0,0 l/m 3,7 km/h (1 Bft) SW 0,00 h 0,0 UV-I 0 W/m 4,8 C 5,4 C 7,9 km/h (2 Bft)
22.11.2017 04:00 23,1 C 6,1 C 59 % 92 % 1013,0 hPa 0,0 l/m 9,4 km/h (2 Bft) SW 0,00 h 0,0 UV-I 0 W/m 4,9 C 3,7 C 15,9 km/h (3 Bft)
22.11.2017 05:00 23,1 C 6,3 C 60 % 91 % 1012,8 hPa 0,0 l/m 6,2 km/h (2 Bft) SW 0,00 h 0,0 UV-I 0 W/m 4,9 C 5,3 C 11,9 km/h (2 Bft)
22.11.2017 06:00 23,3 C 6,2 C 59 % 91 % 1012,5 hPa 0,0 l/m 7,0 km/h (2 Bft) SW 0,00 h 0,0 UV-I 0 W/m 4,9 C 5,1 C 13,0 km/h (3 Bft)
22.11.2017 07:00 23,4 C 6,1 C 59 % 91 % 1012,7 hPa 0,0 l/m 4,5 km/h (1 Bft) SW 0,00 h 0,0 UV-I 0 W/m 4,8 C 5,7 C 9,4 km/h (2 Bft)
22.11.2017 08:00 23,7 C 6,1 C 58 % 93 % 1013,1 hPa 0,0 l/m 4,7 km/h (1 Bft) S-SW 0,00 h 0,0 UV-I 11 W/m 5,0 C 5,7 C 9,0 km/h (2 Bft)
22.11.2017 09:00 23,7 C 6,0 C 58 % 93 % 1013,4 hPa 0,0 l/m 5,6 km/h (1 Bft) S 0,00 h 0,0 UV-I 30 W/m 4,9 C 5,6 C 10,4 km/h (2 Bft)
22.11.2017 10:00 23,8 C 6,6 C 58 % 91 % 1013,8 hPa 0,0 l/m 6,8 km/h (2 Bft) SW 0,27 h 0,7 UV-I 130 W/m 5,3 C 5,7 C 12,7 km/h (3 Bft)
22.11.2017 11:00 25,1 C 8,0 C 54 % 87 % 1013,3 hPa 0,0 l/m 8,9 km/h (2 Bft) SW 0,95 h 1,1 UV-I 296 W/m 5,9 C 6,0 C 15,2 km/h (3 Bft)
22.11.2017 12:00 25,4 C 8,6 C 45 % 85 % 1013,1 hPa 0,0 l/m 5,8 km/h (2 Bft) S-SW 0,92 h 0,9 UV-I 215 W/m 6,2 C 7,7 C 10,8 km/h (2 Bft)
22.11.2017 13:00 24,9 C 8,2 C 46 % 87 % 1012,9 hPa 0,0 l/m 2,8 km/h (1 Bft) S 0,58 h 0,7 UV-I 172 W/m 6,1 C 8,0 C 6,2 km/h (2 Bft)
22.11.2017 14:00 24,7 C 8,7 C 45 % 85 % 1012,9 hPa 0,0 l/m 8,0 km/h (2 Bft) S 0,47 h 0,6 UV-I 157 W/m 6,4 C 7,3 C 13,0 km/h (3 Bft)
22.11.2017 15:00 24,4 C 8,4 C 46 % 86 % 1012,9 hPa 0,0 l/m 3,3 km/h (1 Bft) S 0,00 h 0,0 UV-I 55 W/m 6,1 C 8,2 C 6,2 km/h (2 Bft)
22.11.2017 16:00 24,0 C 7,6 C 46 % 87 % 1012,8 hPa 0,0 l/m 1,3 km/h (1 Bft) S 0,00 h 0,0 UV-I 11 W/m 5,6 C 7,6 C 3,6 km/h (1 Bft)
22.11.2017 17:00 23,7 C 6,6 C 48 % 90 % 1012,9 hPa 0,0 l/m 1,0 km/h (0 Bft) S-SW 0,00 h 0,0 UV-I 0 W/m 5,1 C 6,6 C 3,1 km/h (1 Bft)
22.11.2017 18:00 23,5 C 6,2 C 51 % 90 % 1013,0 hPa 0,0 l/m 0,2 km/h (0 Bft) S 0,00 h 0,0 UV-I 0 W/m 4,7 C 6,2 C 0,9 km/h (0 Bft)
22.11.2017 19:00 23,3 C 5,8 C 52 % 91 % 1012,9 hPa 0,0 l/m 0,2 km/h (0 Bft) SW 0,00 h 0,0 UV-I 0 W/m 4,4 C 5,8 C 1,0 km/h (0 Bft)
22.11.2017 20:00 23,3 C 4,3 C 53 % 90 % 1012,7 hPa 0,0 l/m 0,0 km/h (0 Bft) N 0,00 h 0,0 UV-I 0 W/m 2,8 C 4,3 C 0,0 km/h (0 Bft)
22.11.2017 21:00 23,2 C 2,6 C 54 % 90 % 1012,7 hPa 0,0 l/m 0,0 km/h (0 Bft) N 0,00 h 0,0 UV-I 0 W/m 1,2 C 2,6 C 0,0 km/h (0 Bft)
22.11.2017 22:00 23,0 C 1,2 C 55 % 91 % 1012,7 hPa 0,0 l/m 0,0 km/h (0 Bft) N 0,00 h 0,0 UV-I 0 W/m -0,0 C 1,2 C 0,0 km/h (0 Bft)
22.11.2017 23:00 22,9 C 0,2 C 56 % 93 % 1012,2 hPa 0,0 l/m 0,2 km/h (0 Bft) S 0,00 h 0,0 UV-I 0 W/m -0,8 C 0,2 C 0,6 km/h (0 Bft)
23.11.2017 00:00 22,9 C -0,3 C 57 % 93 % 1012,3 hPa 0,0 l/m 0,2 km/h (0 Bft) NO 0,00 h 0,0 UV-I 0 W/m -1,2 C -0,3 C 0,5 km/h (0 Bft)
23.11.2017 01:00 22,8 C -0,7 C 58 % 94 % 1011,9 hPa 0,0 l/m 0,0 km/h (0 Bft) N 0,00 h 0,0 UV-I 0 W/m -1,6 C -0,7 C 0,0 km/h (0 Bft)
23.11.2017 02:00 22,7 C -0,9 C 59 % 95 % 1012,1 hPa 0,0 l/m 0,0 km/h (0 Bft) N 0,00 h 0,0 UV-I 0 W/m -1,7 C -0,9 C 0,0 km/h (0 Bft)
23.11.2017 03:00 22,6 C -1,2 C 59 % 95 % 1011,9 hPa 0,0 l/m 0,0 km/h (0 Bft) N 0,00 h 0,0 UV-I 0 W/m -1,8 C -1,2 C 0,0 km/h (0 Bft)
23.11.2017 04:00 22,4 C -1,2 C 60 % 95 % 1011,5 hPa 0,0 l/m 0,0 km/h (0 Bft) N 0,00 h 0,0 UV-I 0 W/m -1,9 C -1,2 C 0,0 km/h (0 Bft)
23.11.2017 05:00 22,4 C -1,3 C 61 % 95 % 1011,4 hPa 0,0 l/m 0,2 km/h (0 Bft) N 0,00 h 0,0 UV-I 0 W/m -2,0 C -1,3 C 0,6 km/h (0 Bft)
23.11.2017 06:00 22,5 C -1,6 C 60 % 95 % 1011,8 hPa 0,0 l/m 0,0 km/h (0 Bft) N 0,00 h 0,0 UV-I 0 W/m -2,3 C -1,6 C 0,1 km/h (0 Bft)
23.11.2017 07:00 22,7 C -2,0 C 59 % 95 % 1012,4 hPa 0,0 l/m 0,0 km/h (0 Bft) N 0,00 h 0,0 UV-I 10 W/m -2,6 C -2,0 C 0,0 km/h (0 Bft)
23.11.2017 08:00 23,2 C -1,0 C 57 % 96 % 1012,5 hPa 0,0 l/m 0,0 km/h (0 Bft) N 0,00 h 0,0 UV-I 61 W/m -1,5 C -1,0 C 0,0 km/h (0 Bft)
23.11.2017 09:00 24,7 C 2,1 C 52 % 96 % 1012,7 hPa 0,0 l/m 0,0 km/h (0 Bft) N 0,53 h 0,5 UV-I 154 W/m 1,6 C 2,1 C 0,0 km/h (0 Bft)
23.11.2017 10:00 25,3 C 4,5 C 50 % 93 % 1013,2 hPa 0,0 l/m 0,0 km/h (0 Bft) N 0,70 h 0,7 UV-I 205 W/m 3,4 C 4,5 C 0,0 km/h (0 Bft)
23.11.2017 11:00 26,1 C 7,2 C 48 % 86 % 1012,9 hPa 0,0 l/m 0,0 km/h (0 Bft) W-SW 1,00 h 0,9 UV-I 261 W/m 5,0 C 7,2 C 0,0 km/h (0 Bft)
23.11.2017 12:00 25,9 C 9,2 C 45 % 77 % 1012,9 hPa 0,0 l/m 0,1 km/h (0 Bft) S-SW 0,95 h 0,9 UV-I 241 W/m 5,4 C 9,2 C 1,0 km/h (0 Bft)
23.11.2017 13:00 25,6 C 10,3 C 42 % 72 % 1013,0 hPa 0,0 l/m 0,1 km/h (0 Bft) S-SW 0,85 h 0,7 UV-I 213 W/m 5,4 C 10,3 C 0,7 km/h (0 Bft)
23.11.2017 14:00 25,1 C 10,3 C 44 % 72 % 1012,9 hPa 0,0 l/m 0,0 km/h (0 Bft) N 0,22 h 0,5 UV-I 110 W/m 5,5 C 10,3 C 0,0 km/h (0 Bft)
23.11.2017 15:00 24,8 C 9,5 C 47 % 75 % 1013,1 hPa 0,0 l/m 0,0 km/h (0 Bft) N 0,00 h 0,0 UV-I 33 W/m 5,2 C 9,5 C 0,2 km/h (0 Bft)
23.11.2017 16:00 24,3 C 8,6 C 48 % 77 % 1013,4 hPa 0,0 l/m 0,2 km/h (0 Bft) SO 0,00 h 0,0 UV-I 7 W/m 4,8 C 8,6 C 0,8 km/h (0 Bft)
23.11.2017 17:00 24,0 C 7,3 C 50 % 80 % 1014,0 hPa 0,0 l/m 0,0 km/h (0 Bft) N 0,00 h 0,0 UV-I 0 W/m 4,2 C 7,3 C 0,0 km/h (0 Bft)
23.11.2017 18:00 24,0 C 5,8 C 51 % 86 % 1014,8 hPa 0,0 l/m 0,2 km/h (0 Bft) NW 0,00 h 0,0 UV-I 0 W/m 3,6 C 5,8 C 0,5 km/h (0 Bft)
23.11.2017 19:00 24,2 C 5,3 C 52 % 89 % 1015,1 hPa 0,0 l/m 0,0 km/h (0 Bft) N 0,00 h 0,0 UV-I 0 W/m 3,6 C 5,3 C 0,0 km/h (0 Bft)
23.11.2017 20:00 23,9 C 5,5 C 53 % 90 % 1015,3 hPa 0,0 l/m 0,0 km/h (0 Bft) N 0,00 h 0,0 UV-I 0 W/m 4,0 C 5,5 C 0,0 km/h (0 Bft)
23.11.2017 21:00 23,9 C 5,5 C 53 % 90 % 1015,6 hPa 0,0 l/m 0,0 km/h (0 Bft) N 0,00 h 0,0 UV-I 0 W/m 4,0 C 5,5 C 0,0 km/h (0 Bft)
23.11.2017 22:00 24,0 C 5,2 C 54 % 91 % 1015,7 hPa 0,0 l/m 0,0 km/h (0 Bft) N 0,00 h 0,0 UV-I 0 W/m 3,8 C 5,2 C 0,0 km/h (0 Bft)
23.11.2017 23:00 23,9 C 4,8 C 54 % 91 % 1015,8 hPa 0,0 l/m 0,0 km/h (0 Bft) N 0,00 h 0,0 UV-I 0 W/m 3,4 C 4,8 C 0,0 km/h (0 Bft)
24.11.2017 00:00 23,7 C 4,4 C 55 % 92 % 1016,0 hPa 0,0 l/m 0,0 km/h (0 Bft) N 0,00 h 0,0 UV-I 0 W/m 3,2 C 4,4 C 0,0 km/h (0 Bft)
24.11.2017 01:00 23,5 C 4,0 C 56 % 92 % 1015,8 hPa 0,0 l/m 0,0 km/h (0 Bft) N 0,00 h 0,0 UV-I 0 W/m 2,9 C 4,0 C 0,0 km/h (0 Bft)
24.11.2017 02:00 23,3 C 3,8 C 57 % 93 % 1015,7 hPa 0,0 l/m 0,0 km/h (0 Bft) N 0,00 h 0,0 UV-I 0 W/m 2,8 C 3,8 C 0,0 km/h (0 Bft)
24.11.2017 03:00 23,3 C 3,5 C 57 % 93 % 1015,4 hPa 0,0 l/m 0,0 km/h (0 Bft) N 0,00 h 0,0 UV-I 0 W/m 2,5 C 3,5 C 0,0 km/h (0 Bft)
24.11.2017 04:00 23,2 C 3,1 C 57 % 94 % 1015,3 hPa 0,0 l/m 0,0 km/h (0 Bft) N 0,00 h 0,0 UV-I 0 W/m 2,2 C 3,1 C 0,0 km/h (0 Bft)
24.11.2017 05:00 23,1 C 2,5 C 57 % 94 % 1015,3 hPa 0,0 l/m 0,0 km/h (0 Bft) N-NW 0,00 h 0,0 UV-I 0 W/m 1,6 C 2,5 C 0,2 km/h (0 Bft)
24.11.2017 06:00 23,3 C 2,7 C 57 % 95 % 1015,1 hPa 0,0 l/m 0,0 km/h (0 Bft) N 0,00 h 0,0 UV-I 0 W/m 2,0 C 2,7 C 0,0 km/h (0 Bft)
24.11.2017 07:00 23,4 C 4,4 C 57 % 96 % 1015,1 hPa 0,0 l/m 0,1 km/h (0 Bft) S-SO 0,00 h 0,0 UV-I 8 W/m 3,8 C 4,4 C 0,2 km/h (0 Bft)
24.11.2017 08:00 23,8 C 5,5 C 56 % 93 % 1014,8 hPa 0,0 l/m 0,0 km/h (0 Bft) W-NW 0,02 h 0,0 UV-I 46 W/m 4,4 C 5,5 C 0,2 km/h (0 Bft)
24.11.2017 09:00 24,4 C 7,5 C 55 % 84 % 1014,5 hPa 0,0 l/m 1,0 km/h (0 Bft) S 0,10 h 0,5 UV-I 78 W/m 4,9 C 7,5 C 3,2 km/h (1 Bft)
24.11.2017 10:00 24,5 C 9,5 C 55 % 75 % 1014,2 hPa 0,0 l/m 3,7 km/h (1 Bft) S 0,23 h 0,6 UV-I 131 W/m 5,2 C 9,3 C 7,8 km/h (2 Bft)
24.11.2017 11:00 23,2 C 10,4 C 47 % 72 % 1014,0 hPa 0,0 l/m 2,5 km/h (1 Bft) S 0,37 h 0,8 UV-I 158 W/m 5,6 C 10,4 C 6,1 km/h (2 Bft)
24.11.2017 12:00 22,2 C 10,6 C 45 % 72 % 1013,4 hPa 0,0 l/m 2,3 km/h (1 Bft) S 0,83 h 0,9 UV-I 182 W/m 5,7 C 10,5 C 6,1 km/h (2 Bft)
24.11.2017 13:00 22,1 C 11,4 C 43 % 70 % 1013,1 hPa 0,0 l/m 1,8 km/h (1 Bft) S 0,73 h 0,7 UV-I 199 W/m 6,1 C 11,4 C 4,9 km/h (1 Bft)
24.11.2017 14:00 20,6 C 11,0 C 42 % 72 % 1013,1 hPa 0,0 l/m 2,8 km/h (1 Bft) S 0,03 h 0,5 UV-I 59 W/m 6,2 C 10,9 C 7,0 km/h (2 Bft)
24.11.2017 15:00 19,6 C 10,6 C 45 % 75 % 1013,4 hPa 0,0 l/m 1,0 km/h (0 Bft) S-SO 0,00 h 0,0 UV-I 15 W/m 6,4 C 10,6 C 3,3 km/h (1 Bft)
24.11.2017 16:00 18,7 C 10,0 C 47 % 80 % 1013,5 hPa 0,0 l/m 4,4 km/h (1 Bft) S-SO 0,00 h 0,0 UV-I 5 W/m 6,7 C 9,7 C 8,6 km/h (2 Bft)
24.11.2017 17:00 19,2 C 9,9 C 50 % 82 % 1013,6 hPa 0,0 l/m 3,4 km/h (1 Bft) S-SO 0,00 h 0,0 UV-I 0 W/m 7,0 C 9,8 C 8,1 km/h (2 Bft)
24.11.2017 18:00 21,4 C 9,9 C 50 % 86 % 1013,5 hPa 0,0 l/m 2,1 km/h (1 Bft) S 0,00 h 0,0 UV-I 0 W/m 7,7 C 9,9 C 5,9 km/h (2 Bft)
24.11.2017 19:00 22,2 C 9,7 C 51 % 89 % 1013,7 hPa 0,0 l/m 2,7 km/h (1 Bft) S 0,00 h 0,0 UV-I 0 W/m 7,9 C 9,6 C 6,8 km/h (2 Bft)
24.11.2017 20:00 22,6 C 9,4 C 52 % 90 % 1013,8 hPa 0,2 l/m 1,4 km/h (1 Bft) S 0,00 h 0,0 UV-I 0 W/m 7,8 C 9,3 C 3,6 km/h (1 Bft)
24.11.2017 21:00 22,8 C 9,0 C 54 % 92 % 1013,8 hPa 0,4 l/m 0,3 km/h (0 Bft) S-SW 0,00 h 0,0 UV-I 0 W/m 7,8 C 9,0 C 2,0 km/h (1 Bft)
24.11.2017 22:00 23,0 C 8,6 C 54 % 94 % 1013,8 hPa 0,8 l/m 0,4 km/h (0 Bft) S 0,00 h 0,0 UV-I 0 W/m 7,6 C 8,6 C 1,8 km/h (1 Bft)
24.11.2017 23:00 23,1 C 8,4 C 54 % 95 % 1013,7 hPa 0,4 l/m 3,0 km/h (1 Bft) S 0,00 h 0,0 UV-I 0 W/m 7,6 C 8,3 C 7,5 km/h (2 Bft)
25.11.2017 00:00 23,0 C 8,3 C 54 % 95 % 1013,3 hPa 0,4 l/m 5,6 km/h (1 Bft) S 0,00 h 0,0 UV-I 0 W/m 7,5 C 7,8 C 11,2 km/h (2 Bft)
25.11.2017 01:00 22,9 C 8,2 C 55 % 95 % 1012,5 hPa 0,0 l/m 3,1 km/h (1 Bft) S 0,00 h 0,0 UV-I 0 W/m 7,4 C 8,1 C 7,6 km/h (2 Bft)
25.11.2017 02:00 22,8 C 7,8 C 56 % 95 % 1011,9 hPa 0,0 l/m 1,0 km/h (0 Bft) S 0,00 h 0,0 UV-I 0 W/m 7,1 C 7,8 C 3,6 km/h (1 Bft)
25.11.2017 03:00 22,8 C 7,7 C 57 % 95 % 1010,9 hPa 0,0 l/m 0,4 km/h (0 Bft) S 0,00 h 0,0 UV-I 0 W/m 7,0 C 7,7 C 1,2 km/h (1 Bft)
25.11.2017 04:00 22,9 C 7,6 C 56 % 95 % 1009,7 hPa 0,0 l/m 0,3 km/h (0 Bft) SO 0,00 h 0,0 UV-I 0 W/m 6,9 C 7,6 C 1,3 km/h (1 Bft)
25.11.2017 05:00 22,9 C 7,6 C 57 % 95 % 1008,8 hPa 0,0 l/m 0,1 km/h (0 Bft) SO 0,00 h 0,0 UV-I 0 W/m 6,9 C 7,6 C 0,7 km/h (0 Bft)
25.11.2017 06:00 23,1 C 7,6 C 56 % 95 % 1007,2 hPa 0,0 l/m 0,1 km/h (0 Bft) O 0,00 h 0,0 UV-I 0 W/m 6,9 C 7,6 C 0,8 km/h (0 Bft)
25.11.2017 07:00 23,2 C 7,6 C 56 % 95 % 1006,6 hPa 0,6 l/m 0,0 km/h (0 Bft) N 0,00 h 0,0 UV-I 0 W/m 6,9 C 7,6 C 0,0 km/h (0 Bft)
25.11.2017 08:00 23,3 C 7,4 C 55 % 95 % 1006,0 hPa 0,6 l/m 0,0 km/h (0 Bft) N 0,00 h 0,0 UV-I 7 W/m 6,6 C 7,4 C 0,0 km/h (0 Bft)
25.11.2017 09:00 23,3 C 7,1 C 56 % 96 % 1005,3 hPa 0,8 l/m 0,2 km/h (0 Bft) W-SW 0,00 h 0,0 UV-I 11 W/m 6,4 C 7,1 C 0,7 km/h (0 Bft)
25.11.2017 10:00 23,4 C 6,6 C 56 % 96 % 1005,9 hPa 1,2 l/m 3,6 km/h (1 Bft) W-SW 0,00 h 0,0 UV-I 23 W/m 6,0 C 6,3 C 7,4 km/h (2 Bft)
25.11.2017 11:00 23,6 C 6,2 C 54 % 95 % 1006,5 hPa 1,4 l/m 1,8 km/h (1 Bft) W-SW 0,00 h 0,0 UV-I 31 W/m 5,5 C 6,2 C 4,8 km/h (1 Bft)
25.11.2017 12:00 23,3 C 5,5 C 53 % 95 % 1006,8 hPa 1,2 l/m 1,6 km/h (1 Bft) W-SW 0,00 h 0,0 UV-I 24 W/m 4,8 C 5,5 C 4,3 km/h (1 Bft)
25.11.2017 13:00 23,3 C 5,2 C 53 % 95 % 1007,4 hPa 0,2 l/m 3,4 km/h (1 Bft) W-SW 0,00 h 0,0 UV-I 45 W/m 4,5 C 5,2 C 6,6 km/h (2 Bft)
25.11.2017 14:00 23,4 C 5,2 C 53 % 94 % 1008,1 hPa 0,0 l/m 4,0 km/h (1 Bft) N 0,00 h 0,0 UV-I 20 W/m 4,3 C 4,8 C 3,8 km/h (1 Bft)
25.11.2017 15:00 23,3 C 5,0 C 53 % 94 % 1009,1 hPa 0,0 l/m 5,1 km/h (1 Bft) N 0,00 h 0,0 UV-I 12 W/m 4,0 C 3,8 C 7,4 km/h (2 Bft)
25.11.2017 16:00 23,1 C 4,7 C 54 % 93 % 1009,5 hPa 0,0 l/m 6,4 km/h (2 Bft) SW 0,00 h 0,0 UV-I 0 W/m 3,7 C 3,8 C 12,2 km/h (2 Bft)
25.11.2017 17:00 23,1 C 4,3 C 54 % 94 % 1010,3 hPa 0,6 l/m 9,7 km/h (2 Bft) W-SW 0,00 h 0,0 UV-I 0 W/m 3,4 C 1,5 C 17,1 km/h (3 Bft)
25.11.2017 18:00 23,1 C 3,3 C 55 % 94 % 1011,2 hPa 0,0 l/m 5,3 km/h (1 Bft) W-SW 0,00 h 0,0 UV-I 0 W/m 2,4 C 2,4 C 10,1 km/h (2 Bft)
25.11.2017 19:00 23,2 C 3,5 C 56 % 95 % 1011,9 hPa 0,0 l/m 2,7 km/h (1 Bft) W-SW 0,00 h 0,0 UV-I 0 W/m 2,7 C 3,5 C 6,1 km/h (2 Bft)
25.11.2017 20:00 23,3 C 2,7 C 56 % 94 % 1013,2 hPa 0,0 l/m 6,2 km/h (2 Bft) NW 0,00 h 0,0 UV-I 0 W/m 1,9 C 1,9 C 10,9 km/h (2 Bft)
25.11.2017 21:00 23,3 C 2,2 C 56 % 94 % 1014,4 hPa 0,0 l/m 2,4 km/h (1 Bft) NW 0,00 h 0,0 UV-I 0 W/m 1,3 C 2,2 C 5,9 km/h (2 Bft)
25.11.2017 22:00 23,4 C 1,9 C 57 % 94 % 1015,2 hPa 0,0 l/m 2,9 km/h (1 Bft) W-NW 0,00 h 0,0 UV-I 0 W/m 1,0 C 1,9 C 5,9 km/h (2 Bft)
25.11.2017 23:00 23,4 C 1,7 C 57 % 94 % 1015,9 hPa 0,0 l/m 2,6 km/h (1 Bft) W-NW 0,00 h 0,0 UV-I 0 W/m 0,8 C 1,6 C 4,7 km/h (1 Bft)
26.11.2017 00:00 23,4 C 1,4 C 58 % 94 % 1016,7 hPa 0,0 l/m 0,0 km/h (0 Bft) N 0,00 h 0,0 UV-I 0 W/m 0,6 C 1,4 C 0,1 km/h (0 Bft)
26.11.2017 01:00 23,2 C 1,0 C 58 % 94 % 1017,1 hPa 0,0 l/m 0,1 km/h (0 Bft) W 0,00 h 0,0 UV-I 0 W/m 0,2 C 1,0 C 0,4 km/h (0 Bft)
26.11.2017 02:00 23,1 C 0,2 C 58 % 93 % 1017,9 hPa 0,2 l/m 0,5 km/h (0 Bft) W 0,00 h 0,0 UV-I 0 W/m -0,8 C 0,2 C 1,1 km/h (1 Bft)
26.11.2017 03:00 22,9 C 0,1 C 59 % 94 % 1018,6 hPa 0,0 l/m 1,0 km/h (0 Bft) W-SW 0,00 h 0,0 UV-I 0 W/m -0,7 C 0,1 C 2,8 km/h (1 Bft)
26.11.2017 04:00 22,9 C 0,6 C 60 % 95 % 1019,3 hPa 0,0 l/m 2,3 km/h (1 Bft) W-SW 0,00 h 0,0 UV-I 0 W/m -0,1 C 0,6 C 5,1 km/h (1 Bft)
26.11.2017 05:00 22,9 C 0,8 C 60 % 95 % 1019,6 hPa 0,0 l/m 1,5 km/h (1 Bft) W-SW 0,00 h 0,0 UV-I 0 W/m 0,0 C 0,8 C 3,7 km/h (1 Bft)
26.11.2017 06:00 22,8 C 0,6 C 60 % 94 % 1020,3 hPa 0,2 l/m 6,7 km/h (2 Bft) W-SW 0,00 h 0,0 UV-I 0 W/m -0,3 C -0,9 C 12,3 km/h (3 Bft)
26.11.2017 07:00 22,9 C 0,6 C 60 % 90 % 1021,0 hPa 0,0 l/m 3,6 km/h (1 Bft) W 0,00 h 0,0 UV-I 0 W/m -0,8 C 0,4 C 7,2 km/h (2 Bft)
26.11.2017 08:00 23,0 C 0,6 C 59 % 91 % 1021,5 hPa 0,0 l/m 3,7 km/h (1 Bft) SW 0,00 h 0,0 UV-I 12 W/m -0,6 C 0,5 C 7,2 km/h (2 Bft)
26.11.2017 09:00 23,1 C 0,6 C 59 % 93 % 1021,9 hPa 0,0 l/m 3,2 km/h (1 Bft) SW 0,00 h 0,0 UV-I 30 W/m -0,5 C 0,5 C 6,8 km/h (2 Bft)
26.11.2017 10:00 23,3 C 0,8 C 58 % 93 % 1022,2 hPa 0,2 l/m 4,1 km/h (1 Bft) S-SW 0,00 h 0,0 UV-I 37 W/m -0,2 C 0,7 C 5,3 km/h (1 Bft)
26.11.2017 11:00 23,1 C 0,9 C 57 % 93 % 1022,3 hPa 0,0 l/m 5,2 km/h (1 Bft) SW 0,00 h 0,5 UV-I 60 W/m -0,1 C 0,3 C 10,2 km/h (2 Bft)
26.11.2017 12:00 22,9 C 1,3 C 53 % 91 % 1022,4 hPa 0,0 l/m 5,5 km/h (1 Bft) SW 0,00 h 0,5 UV-I 59 W/m -0,1 C 0,8 C 10,1 km/h (2 Bft)
26.11.2017 13:00 22,7 C 1,1 C 51 % 92 % 1022,6 hPa 0,2 l/m 5,0 km/h (1 Bft) W-SW 0,00 h 0,0 UV-I 46 W/m -0,0 C 0,7 C 9,8 km/h (2 Bft)
26.11.2017 14:00 22,7 C 1,3 C 51 % 91 % 1022,8 hPa 0,0 l/m 4,1 km/h (1 Bft) SW 0,00 h 0,0 UV-I 53 W/m 0,1 C 1,0 C 8,5 km/h (2 Bft)
26.11.2017 15:00 22,8 C 1,2 C 52 % 92 % 1023,1 hPa 0,0 l/m 4,0 km/h (1 Bft) W-SW 0,00 h 0,0 UV-I 37 W/m 0,0 C 1,0 C 8,3 km/h (2 Bft)
26.11.2017 16:00 22,8 C 1,0 C 51 % 91 % 1023,3 hPa 0,0 l/m 3,0 km/h (1 Bft) SW 0,00 h 0,0 UV-I 0 W/m -0,3 C 1,0 C 6,0 km/h (2 Bft)
26.11.2017 17:00 22,7 C 0,9 C 51 % 92 % 1023,5 hPa 0,0 l/m 4,7 km/h (1 Bft) S-SW 0,00 h 0,0 UV-I 0 W/m -0,3 C 0,7 C 9,0 km/h (2 Bft)
26.11.2017 18:00 22,8 C 0,7 C 55 % 94 % 1023,8 hPa 0,2 l/m 5,2 km/h (1 Bft) SW 0,00 h 0,0 UV-I 0 W/m -0,2 C 0,3 C 9,5 km/h (2 Bft)
26.11.2017 19:00 22,9 C 0,7 C 56 % 94 % 1024,3 hPa 0,0 l/m 5,9 km/h (2 Bft) W-SW 0,00 h 0,0 UV-I 0 W/m -0,1 C 0,1 C 10,3 km/h (2 Bft)
26.11.2017 20:00 23,0 C 0,7 C 56 % 95 % 1024,5 hPa 0,0 l/m 6,4 km/h (2 Bft) W-SW 0,00 h 0,0 UV-I 0 W/m -0,0 C -0,2 C 11,1 km/h (2 Bft)
26.11.2017 21:00 23,1 C 0,8 C 56 % 94 % 1024,7 hPa 0,0 l/m 6,6 km/h (2 Bft) W-SW 0,00 h 0,0 UV-I 0 W/m -0,1 C -0,3 C 11,6 km/h (2 Bft)
26.11.2017 22:00 23,1 C 0,9 C 56 % 93 % 1024,7 hPa 0,0 l/m 5,8 km/h (2 Bft) SW 0,00 h 0,0 UV-I 0 W/m -0,1 C 0,3 C 10,6 km/h (2 Bft)
26.11.2017 23:00 23,2 C 0,8 C 56 % 93 % 1024,9 hPa 0,0 l/m 6,2 km/h (2 Bft) W-SW 0,00 h 0,0 UV-I 0 W/m -0,2 C 0,1 C 10,4 km/h (2 Bft)
Min-Datum _ 24.11.17 23.11.17 23.11.17 24.11.17 25.11.17 - 20.11.17 - - - - 23.11.17 20.11.17 20.11.17
_ Min-Zeit 16:44 07:41 13:42 13:45 09:11 - 23:24 - - - - 07:42 14:18 06:36
Minimum _ 18,2 C -2,1 C 41 % 68 % 1005,1 hPa - 0,0 km/h (0 Bft) - - - - -2,8 C -7,9 C 0,0 km/h (0 Bft)
Max-Datum _ 23.11.17 24.11.17 21.11.17 21.11.17 26.11.17 25.11.17 20.11.17 - 23.11.17 22.11.17 24.11.17 24.11.17 24.11.17 20.11.17
_ Max-Zeit 11:25 13:42 03:38 05:58 23:18 11:06 00:48 - 13:48 11:06 10:58 19:12 13:42 00:07
Maximum _ 26,2 C 11,7 C 63 % 98 % 1025,0 hPa 1,4 l/m 24,1 km/h
W-SW (4 Bft)
- 0,03 h 1,1 UV-I 396 W/m 8,0 C 11,7 C 33,8 km/h
W (5 Bft)
Durchschnitt _ 23,2 C 4,3 C 55 % 91 % 1015,0 hPa #13,0 l/m 3,8 km/h (1 Bft) W-SW #9:45 h 0,7 UV-I 68 W/m 3,0 C 3,7 C 6,8 km/h (2 Bft)